Location: Follega
(52.8850°N, 5.7362°E)
Time: 23:34:01
(UTC+00:00)

Cosmos 2263 - Pass Details

Date: 01 June 2020
Orbit: 831 x 865 km, 70.9° (Epoch: 11 July)

Event Time Altitude Azimuth Distance (km) Brightness Sun altitude
Exits shadow 22:39:01 - 211° (SSW) 2,480 6.2 -13.9°
Reaches altitude 10° 22:39:08 10° 211° (SSW) 2,436 6.2 -13.9°
Maximum altitude 22:44:44 88° 299° (WNW) 841 4.2 -14.1°
Drops below altitude 10° 22:50:23 10° 31° (NNE) 2,457 7.3 -14.3°
Sets 22:52:50 0° 32° (NNE) 3,398 8.1 -14.3°
